Weather History for New York, NY

Change the Weather History Date:

Friday, October 25, 2013

  Actual Average Record
Temperature  
Mean Temperature 49 °F 55 °F  
Max Temperature 55 °F 62 °F 78 °F (2001)
Min Temperature 42 °F 48 °F 37 °F (1962)
Degree Days  
Heating Degree Days 16 10  
Month to date heating degree days 102 170  
Since 1 July heating degree days 133 205  
Cooling Degree Days 0 0  
Month to date cooling degree days 51 20  
Year to date cooling degree days 1402 1210  
Moisture  
Dew Point 29 °F    
Average Humidity 50    
Maximum Humidity 62    
Minimum Humidity 38    
Precipitation  
Precipitation 0.00 in 0.12 in 1.52 in (1958)
Month to date precipitation 0.38 3.09  
Year to date precipitation 31.01 37.07  
Snow  
Snow 0.00 in 0.00 in - ()
Month to date snowfall 0.0 0.0  
Since 1 July snowfall 0.0 0.0  
Snow Depth 0.00 in    
Sea Level Pressure  
Sea Level Pressure 30.12 in    
Wind  
Wind Speed 14 mph (WNW)    
Max Wind Speed 25 mph    
Max Gust Speed 33 mph    
Visibility 10 miles    
Events      
T = Trace of Precipitation, MM = Missing Value Source: NWS Daily Summary

Daily Weather History Graph

Daily Weather History Graph

Search for Another Location

Airport:

Trip Planner

Search our weather history database for the weather conditions in past years. The results will help you decide how hot, cold, wet, or windy it might be!

Date:

Astronomy

Oct. 25, 2013 Rise Set
Actual Time 7:18 AM EDT 6:00 PM EDT
Civil Twilight 6:50 AM EDT 6:28 PM EDT
Nautical Twilight 6:17 AM EDT 7:00 PM EDT
Astronomical Twilight 5:46 AM EDT 7:32 PM EDT
Moon 11:17 PM EDT (10/25) 12:57 PM EDT (10/25)
Length of Visible Light 11h 38m
Length of Day
10h 42m
Waning Gibbous, 62% of the Moon is Illuminated
Oct 25
Waning Gibbous
Oct 26
Last Quarter
Nov 3
New
Nov 10
First Quarter
Nov 17
Full

Hourly Weather History & Observations

Time (EDT) Temp. Windchill Dew Point Humidity Pressure Visibility Wind Dir Wind Speed Gust Speed Precip Events Conditions
12:51 AM 45.0 °F 39.3 °F 26.1 °F 48% 30.01 in 10.0 mi West 11.5 mph 23.0 mph N/A   Clear
1:51 AM 44.1 °F 37.1 °F 27.0 °F 51% 30.02 in 10.0 mi West 15.0 mph 21.9 mph N/A   Clear
2:51 AM 44.1 °F 37.1 °F 27.0 °F 51% 30.02 in 10.0 mi West 15.0 mph 23.0 mph N/A   Partly Cloudy
3:51 AM 43.0 °F 36.8 °F 27.0 °F 53% 30.03 in 10.0 mi West 11.5 mph - N/A   Clear
4:51 AM 42.1 °F 35.2 °F 28.0 °F 58% 30.04 in 10.0 mi West 12.7 mph - N/A   Clear
5:51 AM 43.0 °F 36.8 °F 30.9 °F 62% 30.06 in 10.0 mi WNW 11.5 mph - N/A   Clear
6:51 AM 43.0 °F 37.2 °F 30.0 °F 60% 30.08 in 10.0 mi West 10.4 mph - N/A   Clear
7:51 AM 42.1 °F 34.2 °F 30.0 °F 62% 30.10 in 10.0 mi WNW 16.1 mph - N/A   Clear
8:51 AM 44.1 °F 36.8 °F 30.9 °F 60% 30.13 in 10.0 mi WNW 16.1 mph 23.0 mph N/A   Partly Cloudy
9:51 AM 46.0 °F 39.6 °F 30.0 °F 54% 30.13 in 10.0 mi NW 15.0 mph 19.6 mph N/A   Partly Cloudy
10:51 AM 48.0 °F - 28.9 °F 48% 30.13 in 10.0 mi NW 11.5 mph - N/A   Partly Cloudy
11:51 AM 50.0 °F - 30.9 °F 48% 30.13 in 10.0 mi NW 16.1 mph 23.0 mph N/A   Mostly Cloudy
12:51 PM 50.0 °F - 30.9 °F 48% 30.13 in 10.0 mi NW 17.3 mph 24.2 mph N/A   Mostly Cloudy
1:51 PM 52.0 °F - 30.0 °F 43% 30.12 in 10.0 mi WNW 17.3 mph 25.3 mph N/A   Mostly Cloudy
2:51 PM 52.0 °F - 28.9 °F 41% 30.11 in 10.0 mi WNW 15.0 mph 26.5 mph N/A   Mostly Cloudy
3:51 PM 53.1 °F - 28.9 °F 40% 30.12 in 10.0 mi NW 19.6 mph 26.5 mph N/A   Mostly Cloudy
4:51 PM 53.1 °F - 28.0 °F 38% 30.12 in 10.0 mi NW 17.3 mph - N/A   Mostly Cloudy
5:51 PM 52.0 °F - 26.1 °F 37% 30.14 in 10.0 mi WNW 17.3 mph - N/A   Partly Cloudy
6:51 PM 54.0 °F - 28.0 °F 37% 30.17 in 10.0 mi NW 13.8 mph - N/A   Partly Cloudy
7:51 PM 51.1 °F - 28.0 °F 41% 30.18 in 10.0 mi NW 15.0 mph - N/A   Partly Cloudy
8:51 PM 51.1 °F - 28.9 °F 43% 30.20 in 10.0 mi WNW 9.2 mph - N/A   Partly Cloudy
9:51 PM 50.0 °F - 30.0 °F 46% 30.22 in 10.0 mi West 10.4 mph - N/A   Clear
10:51 PM 48.9 °F - 32.0 °F 52% 30.23 in 10.0 mi WNW 10.4 mph - N/A   Clear
11:51 PM 48.0 °F - 32.0 °F 54% 30.22 in 10.0 mi NW 8.1 mph - N/A   Clear